Weather History for Chipley, FL

Change the Weather History Date:

Sunday, November 11, 2012

  Actual Average (KMAI) Record (KMAI)
Temperature  
Mean Temperature 73 °F 61 °F  
Max Temperature 80 °F 73 °F 81 °F (2006)
Min Temperature 66 °F 49 °F 34 °F (2011)
Degree Days  
Heating Degree Days 0    
Month to date heating degree days  
Since 1 July heating degree days  
Cooling Degree Days 8    
Month to date cooling degree days  
Year to date cooling degree days  
Growing Degree Days 23 (Base 50)    
Moisture  
Dew Point 59 °F    
Average Humidity 64    
Maximum Humidity 73    
Minimum Humidity 51    
Precipitation  
Precipitation 0.00 in 0.14 in 2.19 in (2002)
Month to date precipitation 1.30  
Year to date precipitation 46.85  
Sea Level Pressure  
Sea Level Pressure 30.14 in    
Wind  
Wind Speed 5 mph ()    
Max Wind Speed 14 mph    
Max Gust Speed 24 mph    
Visibility 10.0 miles    
Events      
T = Trace of Precipitation, MM = Missing Value Source: Averaged Metar Reports

Daily Weather History Graph

Daily Weather History Graph

Search for Another Location

Airport:

Trip Planner

Search our weather history database for the weather conditions in past years. The results will help you decide how hot, cold, wet, or windy it might be!

Date:

Astronomy

Nov. 11, 2012 Rise Set
Actual Time 6:05 AM CST 4:46 PM CST
Civil Twilight 5:40 AM CST 5:12 PM CST
Nautical Twilight 5:11 AM CST 5:41 PM CST
Astronomical Twilight 4:42 AM CST 6:09 PM CST
Moon 3:27 AM CST (11/11) 3:03 PM CST (11/11)
Length of Visible Light 11h 31m
Length of Day
10h 40m
Waning Crescent, 7% of the Moon is Illuminated
Nov 11
Waning Crescent
Nov 13
New
Nov 20
First Quarter
Nov 28
Full
Dec 6
Last Quarter

Hourly Weather History & Observations

Time (CST) Temp. Heat Index Dew Point Humidity Pressure Visibility Wind Dir Wind Speed Gust Speed Precip Events Conditions
12:15 AM 68.0 °F - 53.6 °F 60% 30.16 in 10.0 mi ESE 8.1 mph - N/A   Clear
12:35 AM - - - N/A% 30.15 in - SE 8.1 mph - N/A   Unknown
12:55 AM 68.0 °F - 55.4 °F 64% 30.15 in 10.0 mi SE 6.9 mph - N/A   Clear
1:15 AM 66.2 °F - 55.4 °F 68% 30.15 in 10.0 mi Calm Calm - N/A   Clear
1:35 AM 66.2 °F - 57.2 °F 73% 30.14 in 10.0 mi Calm Calm - N/A   Clear
1:55 AM 66.2 °F - 57.2 °F 73% 30.13 in 10.0 mi Calm Calm - N/A   Clear
2:15 AM 66.2 °F - 57.2 °F 73% 30.13 in 10.0 mi Calm Calm - N/A   Clear
2:35 AM 66.2 °F - 57.2 °F 73% 30.14 in 10.0 mi Calm Calm - N/A   Clear
2:55 AM 66.2 °F - 57.2 °F 73% 30.14 in 10.0 mi Calm Calm - N/A   Clear
3:15 AM 66.2 °F - 57.2 °F 73% 30.13 in 10.0 mi East 4.6 mph - N/A   Clear
3:35 AM 66.2 °F - 57.2 °F 73% 30.13 in 10.0 mi ENE 4.6 mph - N/A   Clear
3:55 AM 66.2 °F - 57.2 °F 73% 30.13 in 10.0 mi ENE 5.8 mph - N/A   Clear
4:15 AM 66.2 °F - 57.2 °F 73% 30.12 in 10.0 mi East 5.8 mph - N/A   Clear
4:35 AM 66.2 °F - 57.2 °F 73% 30.13 in 10.0 mi East 4.6 mph - N/A   Clear
4:55 AM 66.2 °F - 57.2 °F 73% 30.13 in 10.0 mi East 4.6 mph - N/A   Clear
5:35 AM 68.0 °F - 57.2 °F 68% 30.14 in 10.0 mi Calm Calm - N/A   Clear
5:55 AM 68.0 °F - 55.4 °F 64% 30.14 in 10.0 mi SE 4.6 mph - N/A   Clear
6:15 AM 68.0 °F - 55.4 °F 64% 30.14 in 10.0 mi SSE 3.5 mph - N/A   Clear
6:35 AM 68.0 °F - 55.4 °F 64% 30.14 in 10.0 mi ESE 3.5 mph - N/A   Clear
6:55 AM 68.0 °F - 55.4 °F 64% 30.15 in 10.0 mi East 3.5 mph - N/A   Clear
7:35 AM 69.8 °F - 55.4 °F 60% 30.15 in 10.0 mi East 3.5 mph - N/A   Clear
7:55 AM 69.8 °F - 55.4 °F 60% 30.16 in 10.0 mi SSE 3.5 mph - N/A   Clear
8:15 AM 71.6 °F - 55.4 °F 57% 30.15 in 10.0 mi Calm Calm - N/A   Clear
8:35 AM 73.4 °F - 57.2 °F 57% 30.16 in 10.0 mi SSE 6.9 mph - N/A   Clear
8:55 AM 75.2 °F - 57.2 °F 53% 30.17 in 10.0 mi SE 5.8 mph 17.3 mph N/A   Clear
9:35 AM 75.2 °F - 57.2 °F 53% 30.17 in 10.0 mi East 4.6 mph - N/A   Clear
9:55 AM 77.0 °F - 59.0 °F 54% 30.17 in 10.0 mi SSE 9.2 mph 17.3 mph N/A   Clear
10:15 AM 78.8 °F - 59.0 °F 51% 30.16 in 7.0 mi SSE 6.9 mph 17.3 mph N/A   Clear
10:35 AM 78.8 °F - 59.0 °F 51% 30.17 in 10.0 mi SSE 10.4 mph 24.2 mph N/A   Clear
10:55 AM 78.8 °F - 59.0 °F 51% 30.17 in 10.0 mi SE 3.5 mph 21.9 mph N/A   Clear
11:15 AM 80.6 °F 81.5 °F 60.8 °F 51% 30.16 in 10.0 mi SSE 12.7 mph 18.4 mph N/A   Clear
11:35 AM 80.6 °F 81.5 °F 60.8 °F 51% 30.16 in 10.0 mi SSE 11.5 mph 21.9 mph N/A   Clear
12:15 PM 78.8 °F - 60.8 °F 54% 30.14 in 10.0 mi SE 8.1 mph 17.3 mph N/A   Clear
12:35 PM 78.8 °F - 60.8 °F 54% 30.12 in 10.0 mi SSE 8.1 mph 20.7 mph N/A   Clear
12:55 PM 78.8 °F - 60.8 °F 54% 30.12 in 10.0 mi SE 5.8 mph 17.3 mph N/A   Partly Cloudy
1:15 PM 78.8 °F - 60.8 °F 54% 30.11 in 10.0 mi SSE 8.1 mph 18.4 mph N/A   Scattered Clouds
1:35 PM 78.8 °F - 60.8 °F 54% 30.11 in 10.0 mi South 13.8 mph 23.0 mph N/A   Clear
1:55 PM 78.8 °F - 60.8 °F 54% 30.11 in 10.0 mi ESE 11.5 mph - N/A   Mostly Cloudy
2:15 PM 77.0 °F - 60.8 °F 57% 30.11 in 10.0 mi SE 8.1 mph - N/A   Mostly Cloudy
2:35 PM 78.8 °F - 60.8 °F 54% 30.11 in 10.0 mi ESE 5.8 mph - N/A   Partly Cloudy
2:55 PM 78.8 °F - 60.8 °F 54% 30.10 in 10.0 mi ESE 6.9 mph 16.1 mph N/A   Mostly Cloudy
3:15 PM 78.8 °F - 60.8 °F 54% 30.11 in 10.0 mi SSE 4.6 mph - N/A   Mostly Cloudy
3:35 PM 77.0 °F - 60.8 °F 57% 30.11 in 10.0 mi ESE 4.6 mph - N/A   Partly Cloudy
3:55 PM 77.0 °F - 60.8 °F 57% 30.11 in 10.0 mi East 5.8 mph - N/A   Partly Cloudy
4:15 PM 75.2 °F - 60.8 °F 61% 30.12 in 10.0 mi ESE 3.5 mph - N/A   Mostly Cloudy
4:35 PM 75.2 °F - 60.8 °F 61% 30.12 in 10.0 mi SE 10.4 mph - N/A   Overcast
4:55 PM 73.4 °F - 62.6 °F 69% 30.12 in 10.0 mi ESE 6.9 mph - N/A   Overcast
5:15 PM 73.4 °F - 62.6 °F 69% 30.12 in 10.0 mi SSE 4.6 mph - N/A   Overcast
5:35 PM 73.4 °F - 62.6 °F 69% 30.12 in 10.0 mi SSE 5.8 mph - N/A   Mostly Cloudy
5:55 PM 73.4 °F - 60.8 °F 65% 30.13 in 10.0 mi Calm Calm - N/A   Mostly Cloudy
6:15 PM 73.4 °F - 60.8 °F 65% 30.12 in 10.0 mi East 5.8 mph - N/A   Mostly Cloudy
6:35 PM 71.6 °F - 60.8 °F 69% 30.12 in 10.0 mi SE 8.1 mph - N/A   Partly Cloudy
6:55 PM 71.6 °F - 60.8 °F 69% 30.12 in 10.0 mi SE 4.6 mph - N/A   Partly Cloudy
7:15 PM 71.6 °F - 60.8 °F 69% 30.12 in 10.0 mi ESE 5.8 mph - N/A   Clear
7:35 PM 71.6 °F - 60.8 °F 69% 30.13 in 10.0 mi East 3.5 mph - N/A   Clear
7:55 PM 71.6 °F - 60.8 °F 69% 30.13 in 10.0 mi SSE 6.9 mph - N/A   Mostly Cloudy
8:15 PM 71.6 °F - 60.8 °F 69% 30.13 in 10.0 mi SSE 4.6 mph - N/A   Scattered Clouds
8:35 PM 71.6 °F - 60.8 °F 69% 30.13 in 10.0 mi SSE 5.8 mph - N/A   Partly Cloudy
8:55 PM 71.6 °F - 60.8 °F 69% 30.13 in 10.0 mi South 8.1 mph - N/A   Partly Cloudy
9:15 PM 71.6 °F - 62.6 °F 73% 30.14 in 10.0 mi South 9.2 mph - N/A   Partly Cloudy
9:35 PM 71.6 °F - 62.6 °F 73% 30.14 in 10.0 mi SSE 4.6 mph - N/A   Mostly Cloudy
9:55 PM 71.6 °F - 62.6 °F 73% 30.14 in 10.0 mi South 5.8 mph - N/A   Overcast
10:15 PM 71.6 °F - 62.6 °F 73% 30.14 in 10.0 mi South 3.5 mph - N/A   Overcast
10:35 PM 71.6 °F - 62.6 °F 73% 30.14 in 10.0 mi South 4.6 mph - N/A   Overcast
10:55 PM 71.6 °F - 62.6 °F 73% 30.15 in 10.0 mi South 5.8 mph - N/A   Overcast
11:15 PM 71.6 °F - 62.6 °F 73% 30.15 in 10.0 mi South 5.8 mph - N/A   Overcast
11:35 PM 71.6 °F - 62.6 °F 73% 30.14 in 10.0 mi SSE 4.6 mph - N/A   Overcast
11:55 PM 71.6 °F - 62.6 °F 73% 30.13 in 10.0 mi South 6.9 mph - N/A   Overcast